DW9214 Weather Reports


Display with metric or nautical units.
time (UTC)temp
F
wind
direction
speed
MPH
gust
MPH
rain 1hr
in
rain 24hr
in
rain mn
in
humidity
%
barometer
mb
20260504011559 55 268 0.0 0.0 0.00 0.00 0.00 62 1013.7
20260504011401 55 268 0.0 0.0 0.00 0.00 0.00 62 1013.7
20260504011159 55 267 0.0 0.0 0.00 0.00 0.00 62 1013.7
20260504010959 56 267 0.0 1.0 0.00 0.00 0.00 61 1013.6
20260504010559 56 267 0.0 1.0 0.00 0.00 0.00 60 1013.7
20260504010400 57 268 0.0 1.0 0.00 0.00 0.00 59 1013.6
20260504010159 57 269 0.0 1.0 0.00 0.00 0.00 58 1013.6
20260504010004 57 266 0.0 2.0 0.00 0.00 0.00 58 1013.6
20260504005759 57 266 1.0 2.0 0.00 0.00 0.00 57 1013.5
20260504005359 57 307 1.0 2.0 0.00 0.00 0.00 57 1013.5
20260504005200 57 279 1.0 2.0 0.00 0.00 0.00 57 1013.4
20260504004959 58 285 0.0 2.0 0.00 0.00 0.00 56 1013.3
20260504004800 58 279 0.0 1.0 0.00 0.00 0.00 56 1013.3
20260504004559 58 278 0.0 2.0 0.00 0.00 0.00 55 1013.2
20260504004400 58 269 1.0 4.0 0.00 0.00 0.00 55 1013.2
20260504004159 58 269 1.0 4.0 0.00 0.00 0.00 55 1013.2
20260504004000 59 262 1.0 4.0 0.00 0.00 0.00 54 1013.2
20260504003759 59 235 1.0 4.0 0.00 0.00 0.00 54 1013.2
20260504003600 59 231 1.0 3.0 0.00 0.00 0.00 54 1013.2
20260504003200 59 236 1.0 4.0 0.00 0.00 0.00 53 1013.1
20260504003000 59 217 1.0 4.0 0.00 0.00 0.00 53 1013.0
20260504002800 59 217 2.0 6.0 0.00 0.00 0.00 53 1013.1
20260504002559 59 238 2.0 7.0 0.00 0.00 0.00 52 1013.0
20260504002400 60 224 2.0 7.0 0.00 0.00 0.00 52 1013.0
20260504002159 60 198 2.0 7.0 0.00 0.00 0.00 52 1013.1
20260504001759 60 266 3.0 9.0 0.00 0.00 0.00 51 1013.0
20260504001600 60 249 2.0 9.0 0.00 0.00 0.00 52 1013.0
20260504001359 60 158 2.0 9.0 0.00 0.00 0.00 51 1013.0
20260504000959 60 186 3.0 8.0 0.00 0.00 0.00 51 1012.9
20260504000800 60 262 3.0 8.0 0.00 0.00 0.00 51 1012.9
20260504000559 60 271 4.0 8.0 0.00 0.00 0.00 51 1012.9
20260504000159 61 208 4.0 9.0 0.00 0.00 0.00 50 1012.9
20260503235759 61 176 4.0 9.0 0.00 0.00 0.00 50 1012.9
20260503235600 61 214 5.0 10.0 0.00 0.00 0.00 50 1013.0
20260503235359 61 274 5.0 10.0 0.00 0.00 0.00 50 1013.0
20260503235200 61 211 5.0 10.0 0.00 0.00 0.00 49 1012.9
20260503234959 61 237 5.0 10.0 0.00 0.00 0.00 50 1013.0
20260503234800 61 254 6.0 10.0 0.00 0.00 0.00 49 1012.9
20260503234559 61 227 6.0 13.0 0.00 0.00 0.00 49 1012.8
20260503234401 61 203 6.0 13.0 0.00 0.00 0.00 50 1012.8
20260503234159 61 229 6.0 13.0 0.00 0.00 0.00 49 1012.8
20260503234000 61 252 6.0 13.0 0.00 0.00 0.00 48 1012.7
20260503233759 61 224 6.0 11.0 0.00 0.00 0.00 50 1012.8
20260503233600 61 198 6.0 11.0 0.00 0.00 0.00 49 1012.8
20260503233200 61 240 5.0 11.0 0.00 0.00 0.00 49 1012.9
20260503232959 62 186 4.0 9.0 0.00 0.00 0.00 49 1012.9
20260503232800 62 246 4.0 9.0 0.00 0.00 0.00 49 1013.0
20260503232400 62 248 5.0 13.0 0.00 0.00 0.00 50 1013.0
20260503232159 62 245 6.0 13.0 0.00 0.00 0.00 49 1012.9
20260503231759 62 211 6.0 13.0 0.00 0.00 0.00 49 1012.8
20260503231600 62 174 5.0 13.0 0.00 0.00 0.00 49 1012.8
20260503231359 62 226 5.0 13.0 0.00 0.00 0.00 48 1012.9
20260503230800 63 221 6.0 11.0 0.00 0.00 0.00 48 1013.0
20260503230559 63 266 6.0 11.0 0.00 0.00 0.00 47 1013.0
20260503230400 63 229 6.0 12.0 0.00 0.00 0.00 48 1013.0
20260503230159 63 245 6.0 12.0 0.00 0.00 0.00 46 1013.0
20260503230003 63 173 5.0 12.0 0.00 0.00 0.00 47 1013.0
20260503225759 63 231 5.0 12.0 0.00 0.00 0.00 47 1013.1
20260503225559 63 240 5.0 12.0 0.00 0.00 0.00 47 1013.1
20260503225159 63 237 4.0 11.0 0.00 0.00 0.00 47 1013.3
20260503224759 63 221 4.0 11.0 0.00 0.00 0.00 47 1013.4
20260503224559 63 176 4.0 10.0 0.00 0.00 0.00 48 1013.4
20260503224359 63 233 5.0 10.0 0.00 0.00 0.00 49 1013.5
20260503224200 63 202 5.0 14.0 0.00 0.00 0.00 48 1013.5
20260503223959 62 245 5.0 14.0 0.00 0.00 0.00 49 1013.6
20260503223759 62 168 5.0 14.0 0.00 0.00 0.00 47 1013.6
20260503223559 62 214 5.0 14.0 0.00 0.00 0.00 48 1013.6
20260503223359 62 158 5.0 11.0 0.00 0.00 0.00 48 1013.7
20260503223200 62 206 4.0 11.0 0.00 0.00 0.00 49 1013.8
20260503223000 62 248 5.0 11.0 0.00 0.00 0.00 47 1013.8
20260503222759 63 198 5.0 12.0 0.00 0.00 0.00 49 1013.8
20260503222559 63 200 5.0 12.0 0.00 0.00 0.00 46 1013.8
20260503222358 63 142 4.0 12.0 0.00 0.00 0.00 48 1013.9
20260503222159 63 236 5.0 12.0 0.00 0.00 0.00 46 1014.0
20260503221959 63 191 5.0 11.0 0.00 0.00 0.00 47 1014.0
20260503221759 63 214 5.0 14.0 0.00 0.00 0.00 47 1014.0
20260503221559 63 199 5.0 14.0 0.00 0.00 0.00 46 1014.0
20260503221359 63 188 5.0 14.0 0.00 0.00 0.00 45 1014.1
20260503220959 64 200 5.0 15.0 0.00 0.00 0.00 46 1014.1
20260503220759 64 229 6.0 15.0 0.00 0.00 0.00 45 1014.1
20260503220559 64 195 7.0 15.0 0.00 0.00 0.00 44 1014.1
20260503220004 64 191 7.0 15.0 0.00 0.00 0.00 45 1014.1
20260503215600 64 241 7.0 14.0 0.00 0.00 0.00 45 1014.1
20260503215359 64 160 7.0 14.0 0.00 0.00 0.00 44 1014.2
20260503215201 64 196 7.0 14.0 0.00 0.00 0.00 45 1014.2
20260503214959 64 252 7.0 14.0 0.00 0.00 0.00 44 1014.2
20260503214759 64 188 7.0 14.0 0.00 0.00 0.00 44 1014.3
20260503214559 64 202 7.0 14.0 0.00 0.00 0.00 45 1014.3
20260503214400 64 215 7.0 14.0 0.00 0.00 0.00 44 1014.5
20260503214159 64 223 8.0 14.0 0.00 0.00 0.00 43 1014.6
20260503214000 64 205 8.0 14.0 0.00 0.00 0.00 43 1014.7
20260503213600 64 198 8.0 16.0 0.00 0.00 0.00 44 1014.7
20260503213359 64 205 8.0 16.0 0.00 0.00 0.00 42 1014.7
20260503213200 64 174 7.0 16.0 0.00 0.00 0.00 42 1014.7
20260503212959 64 228 6.0 16.0 0.00 0.00 0.00 43 1014.7
20260503212759 64 195 6.0 16.0 0.00 0.00 0.00 42 1014.7
20260503212559 64 202 5.0 11.0 0.00 0.00 0.00 43 1014.8
20260503212000 64 240 5.0 11.0 0.00 0.00 0.00 42 1015.0
20260503211759 64 293 5.0 11.0 0.00 0.00 0.00 44 1014.9
20260503211600 64 306 6.0 11.0 0.00 0.00 0.00 42 1015.1
20260503211359 64 243 5.0 11.0 0.00 0.00 0.00 41 1015.2
20260503210759 64 238 5.0 13.0 0.00 0.00 0.00 43 1015.1
20260503210600 64 199 6.0 13.0 0.00 0.00 0.00 45 1015.0
20260503210359 64 217 7.0 17.0 0.00 0.00 0.00 43 1015.0
20260503210159 64 227 7.0 17.0 0.00 0.00 0.00 42 1015.0
20260503210001 64 271 8.0 17.0 0.00 0.00 0.00 41 1015.0
20260503205759 64 255 8.0 17.0 0.00 0.00 0.00 43 1014.9
20260503205559 64 248 8.0 17.0 0.00 0.00 0.00 43 1014.8
20260503205359 64 197 8.0 16.0 0.00 0.00 0.00 42 1014.7
20260503205159 64 199 7.0 16.0 0.00 0.00 0.00 42 1014.7
20260503204959 64 176 7.0 16.0 0.00 0.00 0.00 42 1014.7
20260503204759 64 223 6.0 16.0 0.00 0.00 0.00 41 1014.8
20260503204559 64 236 5.0 14.0 0.00 0.00 0.00 42 1014.9
20260503204359 64 216 7.0 15.0 0.00 0.00 0.00 41 1014.9
20260503204159 64 154 8.0 18.0 0.00 0.00 0.00 43 1015.1
20260503203959 63 224 8.0 18.0 0.00 0.00 0.00 45 1015.2
20260503203559 63 200 10.0 18.0 0.00 0.00 0.00 42 1015.2
20260503203359 63 195 9.0 17.0 0.00 0.00 0.00 44 1015.3
20260503203159 63 207 9.0 17.0 0.00 0.00 0.00 41 1015.4
20260503202959 63 233 8.0 17.0 0.00 0.00 0.00 41 1015.5
20260503202759 63 207 9.0 15.0 0.00 0.00 0.00 42 1015.3
20260503202359 63 196 8.0 15.0 0.00 0.00 0.00 41 1015.5
20260503202159 63 165 8.0 15.0 0.00 0.00 0.00 41 1015.5
20260503201959 63 152 8.0 15.0 0.00 0.00 0.00 41 1015.5
20260503201759 63 145 7.0 14.0 0.00 0.00 0.00 41 1015.6
20260503201559 63 168 7.0 14.0 0.00 0.00 0.00 41 1015.6
20260503201359 63 245 7.0 14.0 0.00 0.00 0.00 41 1015.7
20260503201201 63 170 6.0 14.0 0.00 0.00 0.00 41 1015.7
20260503200959 63 253 6.0 12.0 0.00 0.00 0.00 41 1015.7
20260503200759 63 219 7.0 13.0 0.00 0.00 0.00 40 1015.8
20260503200559 63 197 7.0 13.0 0.00 0.00 0.00 42 1015.9
20260503200359 63 205 7.0 13.0 0.00 0.00 0.00 42 1015.9
20260503200159 63 266 7.0 13.0 0.00 0.00 0.00 42 1015.9
20260503195400 62 198 8.0 15.0 0.00 0.00 0.00 43 1016.1
20260503195000 62 179 7.0 14.0 0.00 0.00 0.00 40 1016.3
20260503194759 62 164 6.0 13.0 0.00 0.00 0.00 43 1016.3
20260503194359 62 160 7.0 16.0 0.00 0.00 0.00 40 1016.3
20260503194159 62 221 7.0 16.0 0.00 0.00 0.00 41 1016.4
20260503193959 62 259 8.0 16.0 0.00 0.00 0.00 41 1016.4
20260503193801 62 196 8.0 16.0 0.00 0.00 0.00 42 1016.4
20260503193559 62 154 8.0 15.0 0.00 0.00 0.00 40 1016.5
20260503193400 62 203 8.0 15.0 0.00 0.00 0.00 41 1016.6
20260503193001 62 152 6.0 15.0 0.00 0.00 0.00 40 1016.7
20260503192759 62 193 5.0 15.0 0.00 0.00 0.00 41 1016.9
20260503192559 62 135 5.0 11.0 0.00 0.00 0.00 40 1016.9
20260503192359 62 183 5.0 11.0 0.00 0.00 0.00 40 1017.0
20260503192200 62 297 6.0 11.0 0.00 0.00 0.00 41 1017.0
20260503191959 61 237 7.0 16.0 0.00 0.00 0.00 40 1017.0
20260503191759 61 225 6.0 16.0 0.00 0.00 0.00 41 1017.0
20260503191559 61 162 6.0 16.0 0.00 0.00 0.00 40 1017.1
20260503191400 62 166 7.0 16.0 0.00 0.00 0.00 44 1017.2
20260503191200 61 240 7.0 16.0 0.00 0.00 0.00 41 1017.2
20260503190959 61 187 7.0 13.0 0.00 0.00 0.00 40 1017.1
20260503190800 61 197 7.0 13.0 0.00 0.00 0.00 40 1017.3
20260503190559 61 128 8.0 14.0 0.00 0.00 0.00 38 1017.4
20260503190359 61 245 8.0 15.0 0.00 0.00 0.00 40 1017.4
20260503190003 61 221 7.0 16.0 0.00 0.00 0.00 42 1017.4
20260503185759 61 203 8.0 16.0 0.00 0.00 0.00 38 1017.4
20260503185600 61 140 7.0 16.0 0.00 0.00 0.00 40 1017.5
20260503185359 61 209 7.0 15.0 0.00 0.00 0.00 42 1017.5
20260503185200 61 236 7.0 15.0 0.00 0.00 0.00 43 1017.5
20260503184959 61 160 7.0 15.0 0.00 0.00 0.00 42 1017.6
20260503184800 61 86 7.0 12.0 0.00 0.00 0.00 42 1017.6
20260503184559 61 214 6.0 12.0 0.00 0.00 0.00 42 1017.6
20260503184400 61 187 6.0 12.0 0.00 0.00 0.00 39 1017.7
20260503184159 61 208 6.0 16.0 0.00 0.00 0.00 42 1017.6
20260503184000 61 211 7.0 16.0 0.00 0.00 0.00 40 1017.8
20260503183758 61 200 7.0 16.0 0.00 0.00 0.00 39 1017.8
20260503183359 61 242 8.0 15.0 0.00 0.00 0.00 41 1017.9
20260503183159 61 150 7.0 15.0 0.00 0.00 0.00 40 1017.9
20260503182959 61 179 7.0 15.0 0.00 0.00 0.00 40 1017.9
20260503182800 61 154 7.0 15.0 0.00 0.00 0.00 42 1017.9
20260503182559 61 167 7.0 15.0 0.00 0.00 0.00 39 1017.9
20260503182359 61 226 6.0 15.0 0.00 0.00 0.00 39 1018.1
20260503182159 61 170 6.0 15.0 0.00 0.00 0.00 43 1018.1
20260503182000 61 228 6.0 15.0 0.00 0.00 0.00 41 1018.1
20260503181759 60 218 6.0 17.0 0.00 0.00 0.00 40 1018.0
20260503181600 60 265 5.0 17.0 0.00 0.00 0.00 42 1018.2
20260503181359 61 256 5.0 17.0 0.00 0.00 0.00 40 1018.2
20260503181159 61 272 4.0 17.0 0.00 0.00 0.00 40 1018.2
20260503181001 61 208 4.0 17.0 0.00 0.00 0.00 40 1018.2
20260503180759 61 267 4.0 9.0 0.00 0.00 0.00 43 1018.2
20260503180559 61 295 5.0 16.0 0.00 0.00 0.00 45 1018.2
20260503180359 60 289 6.0 16.0 0.00 0.00 0.00 43 1018.2
20260503180158 60 158 6.0 16.0 0.00 0.00 0.00 41 1018.2
20260503180002 60 155 8.0 16.0 0.00 0.00 0.00 44 1018.3
20260503175559 60 160 8.0 16.0 0.00 0.00 0.00 43 1018.3
20260503175359 60 198 7.0 16.0 0.00 0.00 0.00 41 1018.4
20260503175158 60 150 7.0 16.0 0.00 0.00 0.00 40 1018.3
20260503174759 60 215 6.0 12.0 0.00 0.00 0.00 43 1018.4
20260503174559 60 216 6.0 12.0 0.00 0.00 0.00 45 1018.4
20260503174359 60 181 7.0 13.0 0.00 0.00 0.00 40 1018.4
20260503173759 59 158 9.0 17.0 0.00 0.00 0.00 42 1018.6
20260503173559 59 188 9.0 17.0 0.00 0.00 0.00 42 1018.5
20260503173358 59 144 8.0 17.0 0.00 0.00 0.00 44 1018.6
20260503173159 59 163 8.0 15.0 0.00 0.00 0.00 43 1018.7
20260503172959 59 232 8.0 15.0 0.00 0.00 0.00 42 1018.8
20260503172759 59 217 8.0 15.0 0.00 0.00 0.00 43 1018.7
20260503172559 59 190 7.0 15.0 0.00 0.00 0.00 43 1018.7
20260503172359 59 223 7.0 15.0 0.00 0.00 0.00 42 1018.8
20260503172158 59 198 7.0 15.0 0.00 0.00 0.00 44 1018.8
20260503171758 59 143 6.0 13.0 0.00 0.00 0.00 45 1018.8
20260503171600 59 192 7.0 13.0 0.00 0.00 0.00 46 1018.9
20260503171359 59 246 7.0 13.0 0.00 0.00 0.00 42 1019.0
20260503171159 59 177 6.0 13.0 0.00 0.00 0.00 44 1018.9
20260503170959 59 199 6.0 14.0 0.00 0.00 0.00 44 1018.9
20260503170759 59 148 7.0 15.0 0.00 0.00 0.00 41 1019.0
20260503170601 58 167 7.0 17.0 0.00 0.00 0.00 44 1019.0
20260503170359 58 250 7.0 17.0 0.00 0.00 0.00 42 1019.1
20260503170158 58 223 8.0 17.0 0.00 0.00 0.00 42 1019.2
20260503160200 57 279 6.0 12.0 0.00 0.00 0.00 42 1019.8
20260503151000 55 230 6.0 11.0 0.00 0.00 0.00 47 1020.4
20260503150759 55 202 5.0 11.0 0.00 0.00 0.00 49 1020.4
20260503150558 56 200 5.0 11.0 0.00 0.00 0.00 48 1020.4
20260503150359 55 227 5.0 9.0 0.00 0.00 0.00 48 1020.4
20260503150159 55 184 5.0 9.0 0.00 0.00 0.00 49 1020.4
20260503140158 51 243 5.0 12.0 0.00 0.00 0.00 64 1020.4
20260503131358 46 207 4.0 8.0 0.00 0.00 0.00 78 1020.5
20260503131159 46 214 4.0 8.0 0.00 0.00 0.00 79 1020.6
20260503130759 45 169 4.0 10.0 0.00 0.00 0.00 83 1020.5
20260503130559 45 208 4.0 10.0 0.00 0.00 0.00 82 1020.5
20260503130401 45 198 4.0 10.0 0.00 0.00 0.00 83 1020.5
20260503120159 32 324 0.0 0.0 0.00 0.00 0.00 98 1020.0
20260503110759 28 324 0.0 0.0 0.00 0.00 0.00 97 1019.8
20260503110600 28 324 0.0 0.0 0.00 0.00 0.00 97 1019.8
20260503110359 28 324 0.0 0.0 0.00 0.00 0.00 97 1019.8
20260503110158 28 324 0.0 0.0 0.00 0.00 0.00 97 1019.8
20260503100201 28 324 0.0 0.0 0.00 0.00 0.00 97 1019.4
20260503090359 28 324 0.0 0.0 0.00 0.00 0.00 96 1019.5
20260503090158 28 324 0.0 0.0 0.00 0.00 0.00 96 1019.5
20260503081559 31 324 0.0 0.0 0.00 0.00 0.00 96 1019.2
20260503081358 31 324 0.0 0.0 0.00 0.00 0.00 96 1019.2
20260503081159 31 325 0.0 0.0 0.00 0.00 0.00 96 1019.2
20260503080958 31 324 0.0 0.0 0.00 0.00 0.00 97 1019.2
20260503080759 31 324 0.0 0.0 0.00 0.00 0.00 97 1019.2
20260503072758 32 324 0.0 0.0 0.00 0.00 0.00 96 1019.1
20260503072558 32 324 0.0 0.0 0.00 0.00 0.00 96 1019.1
20260503072358 32 324 0.0 0.0 0.00 0.00 0.00 96 1019.1
20260503072158 32 324 0.0 0.0 0.00 0.00 0.00 96 1019.1
20260503071958 32 324 0.0 0.0 0.00 0.00 0.00 96 1019.1
20260503071758 32 324 0.0 0.0 0.00 0.00 0.00 96 1019.0
20260503071559 32 325 0.0 0.0 0.00 0.00 0.00 96 1019.1
20260503071359 32 324 0.0 0.0 0.00 0.00 0.00 96 1019.1
20260503070958 31 324 0.0 0.0 0.00 0.00 0.00 95 1019.0
20260503070759 31 324 0.0 0.0 0.00 0.00 0.00 95 1019.1
20260503070558 32 324 0.0 0.0 0.00 0.00 0.00 95 1019.1
20260503070359 32 324 0.0 0.0 0.00 0.00 0.00 95 1019.0
20260503070157 32 324 0.0 0.0 0.00 0.00 0.00 95 1019.1
20260503060158 33 325 0.0 0.0 0.00 0.00 0.00 94 1019.3
20260503054758 34 325 0.0 0.0 0.00 0.00 0.00 94 1019.5
20260503054559 34 325 0.0 0.0 0.00 0.00 0.00 94 1019.5
20260503054358 34 325 0.0 0.0 0.00 0.00 0.00 94 1019.5
20260503054158 34 325 0.0 0.0 0.00 0.00 0.00 94 1019.4
20260503053958 34 325 0.0 0.0 0.00 0.00 0.00 94 1019.4
20260503053758 34 325 0.0 0.0 0.00 0.00 0.00 94 1019.4
20260503053558 34 325 0.0 0.0 0.00 0.00 0.00 94 1019.4
20260503053358 34 325 0.0 0.0 0.00 0.00 0.00 94 1019.4
20260503053158 34 325 0.0 0.0 0.00 0.00 0.00 93 1019.4
20260503052958 35 325 0.0 0.0 0.00 0.00 0.00 94 1019.5
20260503052800 35 325 0.0 0.0 0.00 0.00 0.00 94 1019.5
20260503052558 35 324 0.0 0.0 0.00 0.00 0.00 94 1019.5
20260503052358 35 325 0.0 0.0 0.00 0.00 0.00 94 1019.4
20260503052158 35 324 0.0 0.0 0.00 0.00 0.00 94 1019.4
20260503051958 35 324 0.0 0.0 0.00 0.00 0.00 93 1019.4
20260503051758 35 324 0.0 0.0 0.00 0.00 0.00 93 1019.4
20260503051558 35 324 0.0 0.0 0.00 0.00 0.00 93 1019.3
20260503051358 35 324 0.0 0.0 0.00 0.00 0.00 93 1019.3
20260503051158 35 324 0.0 0.0 0.00 0.00 0.00 93 1019.2
20260503050958 36 324 0.0 0.0 0.00 0.00 0.00 94 1019.2
20260503050759 36 324 0.0 0.0 0.00 0.00 0.00 94 1019.2
20260503050359 35 324 0.0 0.0 0.00 0.00 0.00 93 1019.2
20260503050158 35 324 0.0 0.0 0.00 0.00 0.00 93 1019.2
20260503050003 35 324 0.0 0.0 0.00 0.00 0.00 92 1019.2
20260503045759 36 324 0.0 0.0 0.00 0.00 0.00 92 1019.2
20260503045559 36 324 0.0 0.0 0.00 0.00 0.00 92 1019.2
20260503045359 36 324 0.0 0.0 0.00 0.00 0.00 93 1019.1
20260503045159 36 324 0.0 0.0 0.00 0.00 0.00 93 1019.2
20260503044959 36 324 0.0 0.0 0.00 0.00 0.00 92 1019.2
20260503044759 36 324 0.0 0.0 0.00 0.00 0.00 92 1019.2
20260503044359 36 324 0.0 0.0 0.00 0.00 0.00 91 1019.2
20260503044159 35 324 0.0 0.0 0.00 0.00 0.00 91 1019.2
20260503043959 36 324 0.0 0.0 0.00 0.00 0.00 90 1019.2
20260503043759 36 324 0.0 0.0 0.00 0.00 0.00 90 1019.3
20260503043600 36 324 0.0 0.0 0.00 0.00 0.00 90 1019.2
20260503043359 36 324 0.0 0.0 0.00 0.00 0.00 90 1019.2
20260503043159 36 324 0.0 0.0 0.00 0.00 0.00 90 1019.2
20260503043000 37 324 0.0 0.0 0.00 0.00 0.00 91 1019.3
20260503042759 37 324 0.0 0.0 0.00 0.00 0.00 91 1019.2
20260503042600 37 324 0.0 0.0 0.00 0.00 0.00 91 1019.3
20260503042359 37 324 0.0 0.0 0.00 0.00 0.00 90 1019.4
20260503041959 37 324 0.0 0.0 0.00 0.00 0.00 90 1019.2
20260503041759 37 324 0.0 0.0 0.00 0.00 0.00 90 1019.2
20260503041559 37 324 0.0 0.0 0.00 0.00 0.00 90 1019.2
20260503041359 37 324 0.0 0.0 0.00 0.00 0.00 90 1019.2
20260503041159 37 324 0.0 0.0 0.00 0.00 0.00 89 1019.2
20260503040959 37 324 0.0 0.0 0.00 0.00 0.00 89 1019.2
20260503040759 37 324 0.0 0.0 0.00 0.00 0.00 89 1019.2
20260503040559 37 324 0.0 0.0 0.00 0.00 0.00 89 1019.2
20260503040400 37 324 0.0 0.0 0.00 0.00 0.00 89 1019.1
20260503040201 37 324 0.0 0.0 0.00 0.00 0.00 89 1019.1
20260503035800 37 324 0.0 0.0 0.00 0.00 0.00 88 1019.2
20260503035559 38 324 0.0 0.0 0.00 0.00 0.00 88 1019.2
20260503035359 38 324 0.0 0.0 0.00 0.00 0.00 88 1019.2
20260503035159 38 324 0.0 0.0 0.00 0.00 0.00 88 1019.2
20260503035000 38 324 0.0 0.0 0.00 0.00 0.00 88 1019.2
20260503034759 38 324 0.0 0.0 0.00 0.00 0.00 88 1019.1
20260503034559 38 324 0.0 0.0 0.00 0.00 0.00 88 1019.1
20260503034359 38 324 0.0 0.0 0.00 0.00 0.00 87 1019.2
20260503034159 38 324 0.0 0.0 0.00 0.00 0.00 87 1019.1
20260503033959 38 324 0.0 0.0 0.00 0.00 0.00 86 1019.1
20260503033759 38 324 0.0 0.0 0.00 0.00 0.00 86 1019.1
20260503033200 39 324 0.0 0.0 0.00 0.00 0.00 86 1019.0
20260503033000 39 324 0.0 0.0 0.00 0.00 0.00 86 1019.1
20260503032759 39 324 0.0 0.0 0.00 0.00 0.00 86 1019.1
20260503032601 39 324 0.0 0.0 0.00 0.00 0.00 86 1019.1
20260503032359 39 324 0.0 0.0 0.00 0.00 0.00 85 1019.1
20260503032159 39 324 0.0 0.0 0.00 0.00 0.00 85 1019.1
20260503032000 40 324 0.0 0.0 0.00 0.00 0.00 85 1019.1
20260503031559 40 324 0.0 0.0 0.00 0.00 0.00 84 1019.0
20260503031359 40 324 0.0 0.0 0.00 0.00 0.00 84 1019.0
20260503031200 40 324 0.0 0.0 0.00 0.00 0.00 83 1019.0
20260503031000 40 324 0.0 0.0 0.00 0.00 0.00 83 1019.0
20260503030759 41 324 0.0 0.0 0.00 0.00 0.00 83 1019.0
20260503030559 41 324 0.0 0.0 0.00 0.00 0.00 83 1018.9
20260503030359 41 324 0.0 0.0 0.00 0.00 0.00 82 1018.9
20260503030159 41 324 0.0 0.0 0.00 0.00 0.00 81 1018.9
20260503030002 41 324 0.0 0.0 0.00 0.00 0.00 81 1018.9
20260503025801 41 324 0.0 0.0 0.00 0.00 0.00 81 1019.0
20260503025559 42 324 0.0 0.0 0.00 0.00 0.00 81 1018.9
20260503025400 42 324 0.0 0.0 0.00 0.00 0.00 80 1018.9
20260503025159 42 324 0.0 0.0 0.00 0.00 0.00 81 1018.9
20260503024759 42 324 0.0 0.0 0.00 0.00 0.00 80 1018.9
20260503024600 42 324 0.0 0.0 0.00 0.00 0.00 81 1018.9
20260503023959 43 324 0.0 0.0 0.00 0.00 0.00 81 1018.8
20260503023800 43 324 0.0 0.0 0.00 0.00 0.00 80 1018.8
20260503023559 43 324 0.0 0.0 0.00 0.00 0.00 80 1018.8
20260503023159 43 327 0.0 0.0 0.00 0.00 0.00 80 1018.8
20260503023001 43 328 0.0 0.0 0.00 0.00 0.00 81 1018.7
20260503022800 43 328 0.0 0.0 0.00 0.00 0.00 81 1018.7
20260503022359 43 328 0.0 0.0 0.00 0.00 0.00 82 1018.7
20260503022200 44 328 0.0 0.0 0.00 0.00 0.00 81 1018.7
20260503021959 44 328 0.0 0.0 0.00 0.00 0.00 81 1018.7
20260503021800 44 327 0.0 0.0 0.00 0.00 0.00 81 1018.6
20260503021559 44 348 0.0 0.0 0.00 0.00 0.00 81 1018.6
20260503021400 44 350 0.0 0.0 0.00 0.00 0.00 81 1018.6
20260503021159 44 350 0.0 0.0 0.00 0.00 0.00 82 1018.5
20260503021000 44 350 0.0 0.0 0.00 0.00 0.00 82 1018.5
20260503020759 44 350 0.0 0.0 0.00 0.00 0.00 82 1018.5
20260503020602 44 351 0.0 0.0 0.00 0.00 0.00 81 1018.5
20260503020359 44 271 0.0 0.0 0.00 0.00 0.00 82 1018.4
20260503020200 44 271 0.0 0.0 0.00 0.00 0.00 82 1018.5
20260503015759 44 271 0.0 0.0 0.00 0.00 0.00 81 1018.4
20260503015559 45 271 0.0 0.0 0.00 0.00 0.00 80 1018.4
20260503015359 45 271 0.0 0.0 0.00 0.00 0.00 81 1018.3
20260503015159 45 271 0.0 0.0 0.00 0.00 0.00 80 1018.3
20260503014959 45 271 0.0 0.0 0.00 0.00 0.00 80 1018.2
20260503014801 45 271 0.0 0.0 0.00 0.00 0.00 80 1018.2
20260503014359 46 271 0.0 0.0 0.00 0.00 0.00 79 1018.1
20260503014159 46 271 0.0 1.0 0.00 0.00 0.00 80 1018.1
20260503013959 46 271 0.0 1.0 0.00 0.00 0.00 80 1018.0
20260503013759 46 271 0.0 1.0 0.00 0.00 0.00 79 1018.0
20260503013359 46 271 0.0 1.0 0.00 0.00 0.00 79 1018.0
20260503013159 46 271 0.0 1.0 0.00 0.00 0.00 79 1018.0
20260503012759 47 271 0.0 1.0 0.00 0.00 0.00 79 1018.0
20260503012559 47 271 0.0 1.0 0.00 0.00 0.00 79 1017.9
20260503012359 47 271 0.0 1.0 0.00 0.00 0.00 79 1017.8
20260503012159 47 271 0.0 1.0 0.00 0.00 0.00 78 1017.8